Location: El Centro
(32.7920°N, 115.5620°W)
Time: 15:14:38
(UTC-07:00)

Amateur Radio Satellites - All Passes

Search period start: 16 October 2017 14:44
Search period end: 17 October 2017 14:44
Location: El Centro, 32.7920°N, 115.5620°W

Satellite Date Start Highest point End Downlink Frequencies (MHz)
Time Altitude Azimuth
MOZHAYETS 4 16 Oct 14:46:31 14:48:11 12° 92° (E) 14:49:51
BEESAT 16 Oct 14:51:55 14:53:57 13° 93° (E) 14:56:00 436.000
50 SAT 16 Oct 14:54:22 14:56:32 17° 289° (WNW) 14:58:42 437.505
UKube-1 16 Oct 15:10:14 15:14:12 37° 287° (WNW) 15:18:09 .
AO-7 16 Oct 15:11:23 15:19:38 74° 70° (ENE) 15:27:54 .
Gurwin Techsat 1B 16 Oct 15:18:26 15:20:35 12° 268° (W) 15:22:44 435.225
ITAMSAT 1 16 Oct 15:41:37 15:46:48 88° 259° (W) 15:52:01 435.822/435.867
Tancredo 1 16 Oct 16:05:09 16:05:39 11° 36° (NE) 16:06:08 437.200
SRMSAT 16 Oct 16:06:07 16:07:52 11° 197° (SSW) 16:09:37 437.500
ITUPSAT 1 16 Oct 16:08:39 16:13:27 86° 286° (WNW) 16:18:14 437.325
SO-50 16 Oct 16:16:17 16:19:53 22° 53° (NE) 16:23:31 436.795
CUBESAT XI-V 16 Oct 16:20:55 16:24:54 29° 97° (E) 16:28:53 437.345
MOZHAYETS 4 16 Oct 16:21:08 16:25:33 50° 286° (WNW) 16:29:57
BEESAT 16 Oct 16:27:19 16:31:57 51° 286° (WNW) 16:36:33 436.000
DOVE 4 16 Oct 16:38:08 16:41:45 30° 72° (ENE) 16:45:26 437.250
KKS-1 16 Oct 16:44:51 16:47:02 13° 94° (E) 16:49:12 437.445
XW-2C 16 Oct 17:04:45 17:06:09 12° 69° (ENE) 17:07:33 145.795 - 145.815
AO-7 16 Oct 17:07:27 17:12:55 19° 265° (W) 17:18:26 .
CUTE-I 16 Oct 17:20:54 17:24:57 23° 68° (ENE) 17:29:00 437.470
STARS 16 Oct 17:29:22 17:32:14 17° 95° (E) 17:35:05 437.465
nSIGHT-1 16 Oct 17:30:41 17:32:22 13° 32° (NNE) 17:34:03 .
Tancredo 1 16 Oct 17:36:27 17:37:54 17° 230° (SW) 17:39:21 437.200
HO-68 16 Oct 17:42:29 17:47:19 20° 61° (ENE) 17:52:09 435.675
LilacSat-2 16 Oct 17:46:59 17:50:41 47° 75° (ENE) 17:54:23 437.200
XW-2F 16 Oct 17:51:07 17:54:45 45° 75° (ENE) 17:58:23 145.980 - 146.000
ISS 16 Oct 17:52:08 17:54:31 18° 34° (NE) 17:56:53 437.550
SO-50 16 Oct 17:56:11 18:00:22 34° 247° (WSW) 18:04:35 436.795
KAITUO 1B 16 Oct 17:56:56 18:00:28 40° 75° (ENE) 18:04:00 145.475/437.950
CUBESAT XI-V 16 Oct 17:58:36 18:02:03 21° 290° (WNW) 18:05:30 437.345
XW-2D 16 Oct 17:59:50 18:03:37 69° 77° (ENE) 18:07:25 145.860 - 145.880
XW-2B 16 Oct 18:13:06 18:16:55 80° 257° (WSW) 18:20:44 145.730 - 145.750
DOVE 4 16 Oct 18:17:00 18:19:30 15° 266° (W) 18:22:01 437.250
NUDT-PHONESAT 16 Oct 18:18:08 18:21:52 81° 78° (ENE) 18:25:36 437.300
KKS-1 16 Oct 18:19:29 18:23:43 43° 287° (WNW) 18:27:57 437.445
XW-2C 16 Oct 18:36:24 18:39:57 36° 262° (W) 18:43:29 145.795 - 145.815
PCSat 16 Oct 18:38:36 18:43:58 61° 62° (ENE) 18:49:17 145.827
UWE-3 16 Oct 18:54:27 18:57:32 18° 68° (ENE) 19:00:38 435.000/436.395/437.385
CUTE-I 16 Oct 18:59:52 19:04:43 36° 262° (W) 19:09:36 437.470
STARS 16 Oct 19:04:35 19:08:36 34° 288° (WNW) 19:12:35 437.465
nSIGHT-1 16 Oct 19:05:44 19:08:53 55° 227° (SW) 19:12:02 .
XW-2A 16 Oct 19:24:49 19:28:03 40° 75° (ENE) 19:31:17 145.665 - 145.685
CUTE 1.7 + AOD 2 16 Oct 19:25:54 19:30:04 57° 260° (W) 19:34:15 437.475
HO-68 16 Oct 19:27:13 19:34:19 68° 257° (WSW) 19:41:29 435.675
Oscar 11 16 Oct 19:27:52 19:29:25 12° 67° (ENE) 19:30:58 .
ISS 16 Oct 19:28:02 19:31:03 35° 229° (SW) 19:34:05 437.550
SEEDS 16 Oct 19:41:20 19:45:29 63° 260° (W) 19:49:37 437.485
CUBEBUG 2 16 Oct 19:42:00 19:46:33 72° 259° (W) 19:51:15 437.445
AO-73 16 Oct 19:56:59 20:01:15 41° 73° (ENE) 20:05:33 145.935
FO-29 16 Oct 20:03:05 20:06:29 14° 93° (E) 20:10:00 435.910
ZACube-1 16 Oct 20:16:05 20:20:38 81° 78° (ENE) 20:25:14 437.345
AAUSAT CUBESAT 2 16 Oct 20:18:12 20:22:13 53° 260° (W) 20:26:15 437.432
STRAND 1 16 Oct 20:21:11 20:26:21 75° 284° (WNW) 20:31:28 437.568
PCSat 16 Oct 20:24:07 20:26:45 14° 257° (WSW) 20:29:23 145.827
UWE-3 16 Oct 20:29:25 20:33:37 36° 262° (W) 20:37:55 435.000/436.395/437.385
O/OREOS (USA 219) 16 Oct 20:33:20 20:36:59 24° 102° (ESE) 20:40:40 437.305
DELFI C3 16 Oct 20:50:57 20:53:51 20° 71° (ENE) 20:56:45 145.870
YUBILEINY 16 Oct 20:55:45 21:04:25 59° 81° (E) 21:13:05 435.215
Oscar 11 16 Oct 21:00:51 21:05:04 49° 260° (W) 21:09:17 .
Max Valier Satellite 16 Oct 21:02:51 21:05:33 19° 71° (ENE) 21:08:16 145.860
EO-88 16 Oct 21:03:34 21:05:24 13° 69° (ENE) 21:07:13 145.990 - 145.960
UNISAT 6 16 Oct 21:17:58 21:18:26 10° 91° (E) 21:18:54 437.425
BEESAT 3 16 Oct 21:26:57 21:29:13 15° 51° (NE) 21:31:29 437.485
TIGRISAT 16 Oct 21:32:01 21:34:34 15° 93° (E) 21:37:04 435.000
AO-73 16 Oct 21:35:05 21:37:35 15° 267° (W) 21:40:07 145.935
FO-29 16 Oct 21:44:55 21:51:50 87° 286° (WNW) 21:59:28 435.910
PRISM 16 Oct 22:01:43 22:03:33 13° 94° (E) 22:05:24 437.425
O/OREOS (USA 219) 16 Oct 22:12:33 22:16:15 24° 296° (WNW) 22:20:00 437.305
DELFI C3 16 Oct 22:25:26 22:28:26 21° 264° (W) 22:31:27 145.870
ESTCUBE 1 16 Oct 22:26:32 22:29:09 15° 68° (ENE) 22:31:44 437.505/2401.250
EO-88 16 Oct 22:35:34 22:38:44 28° 263° (W) 22:41:55 145.990 - 145.960
Max Valier Satellite 16 Oct 22:36:24 22:39:13 20° 264° (W) 22:42:03 145.860
BEESAT 2 16 Oct 22:36:56 22:40:19 25° 55° (NE) 22:43:37 435.950
UNISAT 6 16 Oct 22:50:54 22:55:27 57° 285° (WNW) 22:59:52 437.425
YUBILEINY 16 Oct 22:53:54 23:00:29 24° 277° (W) 23:07:07 435.215
BEESAT 3 16 Oct 23:03:16 23:06:54 37° 247° (WSW) 23:10:28 437.485
TIGRISAT 16 Oct 23:07:03 23:11:22 41° 287° (WNW) 23:15:37 435.000
AO-85 16 Oct 23:17:47 23:22:23 57° 60° (ENE) 23:27:17 145.980
QB50P2 16 Oct 23:27:07 23:28:47 12° 93° (E) 23:30:27 145.880/145.840
AIST 2D 16 Oct 23:28:20 23:31:29 32° 98° (E) 23:34:37 435.315
FO-29 16 Oct 23:32:58 23:36:06 14° 297° (WNW) 23:39:21 435.910
NANOSAT C BR1 16 Oct 23:34:47 23:36:13 11° 93° (E) 23:37:39 145.865
PRISM 16 Oct 23:35:06 23:38:54 38° 287° (WNW) 23:42:44 437.425
LO-87 16 Oct 23:37:53 23:41:14 39° 261° (W) 23:44:38 145.935 - 145.965
DUCHIFAT 1 16 Oct 23:47:01 23:49:21 14° 94° (E) 23:51:40 145.980
SPROUT 16 Oct 23:54:35 23:58:25 34° 73° (ENE) 00:02:18 437.525
ESTCUBE 1 17 Oct 00:01:20 00:05:33 40° 261° (W) 00:09:47 437.505/2401.250
VELOX 1 17 Oct 00:08:43 00:12:39 34° 73° (ENE) 00:16:37 145.980
RS-15 17 Oct 00:13:03 00:24:13 44° 107° (ESE) 00:35:28 29.354- 29.394
BEESAT 2 17 Oct 00:14:50 00:17:52 21° 250° (WSW) 00:20:51 435.950
EO-79 17 Oct 00:36:55 00:41:13 85° 104° (ESE) 00:45:26 145.935-145.965
POLYITAN 1 17 Oct 00:40:31 00:44:47 87° 283° (WNW) 00:49:01 437.675
AO-85 17 Oct 01:00:08 01:02:25 13° 251° (WSW) 01:04:46 145.980
QB50P2 17 Oct 01:00:41 01:04:43 42° 286° (WNW) 01:08:43 145.880/145.840
AIST 2D 17 Oct 01:04:02 01:04:16 10° 291° (WNW) 01:04:32 435.315
NANOSAT C BR1 17 Oct 01:08:02 01:12:05 44° 286° (WNW) 01:16:05 145.865
50 SAT 17 Oct 01:17:24 01:20:36 63° 76° (ENE) 01:23:49 437.505
DUCHIFAT 1 17 Oct 01:21:13 01:25:04 35° 287° (WNW) 01:28:54 145.980
DX 1 17 Oct 01:27:12 01:31:29 67° 75° (ENE) 01:35:46 434.975-435.025
SPROUT 17 Oct 01:31:50 01:34:22 15° 266° (W) 01:36:54 437.525
M-CUBED/EXP-1 PRIME 17 Oct 01:33:14 01:35:51 19° 102° (ESE) 01:38:36 437.505
BUGSAT 1 17 Oct 01:44:15 01:48:30 84° 281° (W) 01:52:40 437.445
VELOX 1 17 Oct 01:46:27 01:49:09 16° 265° (W) 01:51:50 145.980
Oscar 19 17 Oct 01:55:38 02:00:38 52° 101° (E) 02:05:36 437.125/150
Gurwin Techsat 1B 17 Oct 01:56:04 02:00:56 35° 98° (E) 02:05:46 435.225
UKube-1 17 Oct 01:59:29 02:03:46 81° 257° (WSW) 02:08:05 .
RS-15 17 Oct 02:24:39 02:36:26 52° 306° (NW) 02:48:22 29.354- 29.394
M-CUBED/EXP-1 PRIME 17 Oct 03:07:29 03:10:09 20° 292° (WNW) 03:12:58 437.505
ITUPSAT 1 17 Oct 03:10:37 03:15:22 67° 75° (ENE) 03:20:09 437.325
MOZHAYETS 4 17 Oct 03:17:51 03:22:30 90° 78° (ENE) 03:27:10
AO-7 17 Oct 03:18:41 03:25:52 32° 99° (E) 03:33:00 .
CUBESAT XI-V 17 Oct 03:20:34 03:23:41 18° 69° (ENE) 03:26:48 437.345
BEESAT 17 Oct 03:28:46 03:33:32 75° 258° (WSW) 03:38:20 436.000
Gurwin Techsat 1B 17 Oct 03:36:28 03:40:36 23° 292° (WNW) 03:44:44 435.225
Oscar 19 17 Oct 03:36:35 03:39:27 15° 294° (WNW) 03:42:18 437.125/150
NO-84 17 Oct 03:50:14 03:54:31 77° 131° (SE) 03:58:48 435.350 FM
ITAMSAT 1 17 Oct 03:59:03 04:04:06 47° 100° (E) 04:09:07 435.822/435.867
DOVE 4 17 Oct 04:41:22 04:44:10 15° 94° (E) 04:47:01 437.250
RS-15 17 Oct 04:46:10 04:52:53 16° 334° (NNW) 04:59:34 29.354- 29.394
CUBESAT XI-V 17 Oct 04:56:29 05:00:44 35° 262° (W) 05:04:59 437.345
AO-7 17 Oct 05:10:51 05:18:42 49° 294° (WNW) 05:26:33 .
KKS-1 17 Oct 05:12:29 05:16:54 84° 257° (WSW) 05:21:21 437.445
NO-84 17 Oct 05:29:49 05:32:21 15° 325° (NW) 05:34:51 435.350 FM
ITAMSAT 1 17 Oct 05:39:45 05:43:07 18° 294° (WNW) 05:46:29 435.822/435.867
CUTE-I 17 Oct 05:43:37 05:45:46 12° 92° (E) 05:47:54 437.470
XW-2B 17 Oct 05:51:20 05:53:18 14° 94° (E) 05:55:16 145.730 - 145.750
STARS 17 Oct 05:55:58 06:00:18 69° 259° (WSW) 06:04:41 437.465
XW-2C 17 Oct 06:13:12 06:16:27 28° 97° (E) 06:19:41 145.795 - 145.815
DOVE 4 17 Oct 06:17:09 06:21:57 51° 285° (WNW) 06:26:57 437.250
JUGNU 17 Oct 06:22:18 06:24:32 12° 164° (SSE) 06:26:45 437.505
SO-50 17 Oct 06:27:05 06:30:02 17° 109° (ESE) 06:33:00 436.795
O/OREOS (USA 219) 17 Oct 06:47:25 06:51:08 24° 64° (ENE) 06:54:50 437.305
LilacSat-2 17 Oct 06:58:24 07:02:06 57° 284° (WNW) 07:05:46 437.200
HO-68 17 Oct 07:00:22 07:06:34 31° 97° (E) 07:12:44 435.675
XW-2F 17 Oct 07:01:07 07:04:48 61° 283° (WNW) 07:08:27 145.980 - 146.000
KAITUO 1B 17 Oct 07:05:45 07:09:24 70° 284° (WNW) 07:13:03 145.475/437.950
RS-15 17 Oct 07:09:32 07:13:27 12° 14° (NNE) 07:17:19 29.354- 29.394
XW-2D 17 Oct 07:10:41 07:14:11 39° 285° (WNW) 07:17:40 145.860 - 145.880
CUTE 1.7 + AOD 2 17 Oct 07:15:14 07:18:59 32° 97° (E) 07:22:45 437.475
CUTE-I 17 Oct 07:20:50 07:26:08 64° 286° (WNW) 07:31:26 437.470
XW-2B 17 Oct 07:24:15 07:27:27 27° 287° (WNW) 07:30:40 145.730 - 145.750
NUDT-PHONESAT 17 Oct 07:26:23 07:29:45 36° 286° (WNW) 07:33:07 437.300
SEEDS 17 Oct 07:29:41 07:33:16 28° 97° (E) 07:36:50 437.485
STRAND 1 17 Oct 07:32:24 07:37:30 84° 257° (WSW) 07:42:40 437.568
PCSat 17 Oct 07:35:15 07:38:03 14° 104° (ESE) 07:40:50 145.827
CUBEBUG 2 17 Oct 07:37:36 07:41:50 34° 97° (E) 07:45:56 437.445
XW-2C 17 Oct 07:48:21 07:50:20 14° 290° (WNW) 07:52:19 145.795 - 145.815
AO-73 17 Oct 07:52:21 07:53:06 10° 91° (E) 07:53:50 145.935
FO-29 17 Oct 07:55:21 07:59:06 20° 66° (ENE) 08:02:56 435.910
YUBILEINY 17 Oct 08:02:30 08:04:02 11° 77° (ENE) 08:05:34 435.215
AAUSAT CUBESAT 2 17 Oct 08:04:39 08:08:17 30° 97° (E) 08:11:55 437.432
SO-50 17 Oct 08:06:02 08:10:11 36° 303° (WNW) 08:14:20 436.795
JUGNU 17 Oct 08:08:39 08:12:51 20° 173° (S) 08:17:03 437.505
ZACube-1 17 Oct 08:09:48 08:13:09 21° 95° (E) 08:16:25 437.345
XW-2A 17 Oct 08:22:53 08:26:14 86° 102° (ESE) 08:29:33 145.665 - 145.685
UWE-3 17 Oct 08:23:08 08:27:39 65° 101° (E) 08:31:59 435.000/436.395/437.385
O/OREOS (USA 219) 17 Oct 08:26:38 08:30:26 26° 258° (WSW) 08:34:11 437.305
HO-68 17 Oct 08:47:37 08:54:18 43° 292° (WNW) 09:00:57 435.675
CUTE 1.7 + AOD 2 17 Oct 08:51:56 08:54:31 16° 291° (WNW) 08:57:06 437.475
Oscar 11 17 Oct 08:52:22 08:56:26 40° 99° (E) 09:00:27 .
SEEDS 17 Oct 09:05:52 09:08:42 18° 290° (WNW) 09:11:32 437.485
CUBEBUG 2 17 Oct 09:14:57 09:18:07 18° 292° (WNW) 09:21:13 437.445
PCSat 17 Oct 09:15:32 09:20:51 59° 297° (WNW) 09:26:13 145.827
RS-15 17 Oct 09:20:43 09:31:20 35° 47° (NE) 09:41:22 29.354- 29.394
AO-73 17 Oct 09:25:22 09:29:35 49° 285° (WNW) 09:33:41 145.935
Tancredo 1 17 Oct 09:27:44 09:29:01 16° 322° (NW) 09:30:18 437.200
FO-29 17 Oct 09:39:12 09:43:54 36° 262° (W) 09:48:47 435.910
AAUSAT CUBESAT 2 17 Oct 09:40:52 09:43:26 16° 291° (WNW) 09:46:02 437.432
UNISAT 6 17 Oct 09:44:27 09:49:01 71° 75° (ENE) 09:53:40 437.425
ZACube-1 17 Oct 09:45:44 09:49:19 25° 289° (WNW) 09:52:51 437.345
YUBILEINY 17 Oct 09:50:38 09:59:17 78° 93° (E) 10:07:59 435.215
JUGNU 17 Oct 09:56:50 10:01:14 22° 183° (S) 10:05:39 437.505
TIGRISAT 17 Oct 10:00:14 10:04:48 84° 257° (WSW) 10:09:30 435.000
nSIGHT-1 17 Oct 10:04:26 10:07:18 31° 131° (SE) 10:10:11 .
DELFI C3 17 Oct 10:05:19 10:09:14 61° 101° (E) 10:13:09 145.870
EO-88 17 Oct 10:08:06 10:11:18 29° 98° (E) 10:14:28 145.990 - 145.960
Max Valier Satellite 17 Oct 10:09:31 10:13:04 46° 99° (E) 10:16:35 145.860
PRISM 17 Oct 10:19:13 10:23:15 77° 76° (ENE) 10:27:18 437.425
SRMSAT 17 Oct 10:25:16 10:29:15 18° 169° (S) 10:33:13 437.500
ISS 17 Oct 10:28:07 10:31:17 54° 133° (SE) 10:34:28 437.550
Oscar 11 17 Oct 10:30:00 10:32:09 14° 292° (WNW) 10:34:19 .
LO-87 17 Oct 11:09:20 11:12:03 20° 96° (E) 11:14:45 145.935 - 145.965
EO-79 17 Oct 11:24:47 11:28:37 33° 72° (ENE) 11:32:28 145.935-145.965
POLYITAN 1 17 Oct 11:28:23 11:32:19 37° 73° (ENE) 11:36:17 437.675
AIST 2D 17 Oct 11:30:26 11:33:54 57° 260° (W) 11:37:22 435.315
RS-15 17 Oct 11:32:55 11:44:25 64° 249° (WSW) 11:55:20 29.354- 29.394
nSIGHT-1 17 Oct 11:41:16 11:43:37 19° 325° (NW) 11:45:58 .
EO-88 17 Oct 11:43:01 11:44:37 13° 291° (WNW) 11:46:13 145.990 - 145.960
JUGNU 17 Oct 11:46:13 11:49:36 16° 193° (SSW) 11:52:58 437.505
QB50P2 17 Oct 11:48:03 11:52:17 76° 77° (ENE) 11:56:34 145.880/145.840
YUBILEINY 17 Oct 11:51:29 11:56:56 18° 291° (WNW) 12:02:24 435.215
NANOSAT C BR1 17 Oct 11:54:54 11:59:06 72° 76° (ENE) 12:03:21 145.865
ESTCUBE 1 17 Oct 11:57:44 12:02:09 58° 101° (E) 12:06:33 437.505/2401.250
NO-84 17 Oct 12:05:09 12:08:41 63° 47° (NE) 12:11:54 435.350 FM
ISS 17 Oct 12:06:10 12:07:59 14° 328° (NNW) 12:09:49 437.550
DUCHIFAT 1 17 Oct 12:07:35 12:11:49 89° 77° (ENE) 12:16:05 145.980
SRMSAT 17 Oct 12:13:12 12:17:48 23° 180° (S) 12:22:24 437.500
M-CUBED/EXP-1 PRIME 17 Oct 12:17:16 12:17:59 11° 65° (ENE) 12:18:43 437.505
BEESAT 2 17 Oct 12:25:28 12:27:05 12° 108° (ESE) 12:28:41 435.950
BUGSAT 1 17 Oct 12:29:19 12:33:05 34° 73° (ENE) 12:36:54 437.445
LO-87 17 Oct 12:42:45 12:45:17 18° 289° (WNW) 12:47:49 145.935 - 145.965
BEESAT 3 17 Oct 12:47:41 12:51:40 82° 298° (WNW) 12:55:42 437.485
EO-79 17 Oct 13:01:52 13:04:24 15° 266° (W) 13:06:57 145.935-145.965
POLYITAN 1 17 Oct 13:05:56 13:08:11 14° 266° (W) 13:10:27 437.675
Oscar 19 17 Oct 13:07:57 13:12:55 49° 73° (ENE) 13:17:53 437.125/150
Gurwin Techsat 1B 17 Oct 13:12:48 13:17:37 37° 71° (ENE) 13:22:28 435.225
SPROUT 17 Oct 13:19:41 13:23:57 65° 284° (WNW) 13:28:11 437.525
DX 1 17 Oct 13:20:51 13:23:37 16° 95° (E) 13:26:21 434.975-435.025
AO-85 17 Oct 13:28:39 13:32:23 47° 115° (ESE) 13:36:08 145.980
ESTCUBE 1 17 Oct 13:37:28 13:38:23 11° 294° (WNW) 13:39:19 437.505/2401.250
VELOX 1 17 Oct 13:38:41 13:43:03 61° 285° (WNW) 13:47:25 145.980
M-CUBED/EXP-1 PRIME 17 Oct 13:48:55 13:52:09 32° 256° (WSW) 13:55:14 437.505
UKube-1 17 Oct 13:51:22 13:54:48 23° 97° (E) 13:58:12 .
BEESAT 2 17 Oct 14:00:35 14:04:22 41° 302° (WNW) 14:08:12 435.950
SRMSAT 17 Oct 14:02:16 14:06:21 19° 190° (S) 14:10:28 437.500
BUGSAT 1 17 Oct 14:06:14 14:08:30 14° 266° (W) 14:10:47 437.445
50 SAT 17 Oct 14:12:35 14:15:53 70° 283° (WNW) 14:19:09 437.505
AO-7 17 Oct 14:13:18 14:20:14 31° 62° (ENE) 14:27:10 .
